Location: Bessat
(45.8735°N, 1.9924°E)
Time: 09:12:07
(UTC+00:00)

USA 215 - Pass Details

Date: 11 May 2021
Orbit: 1100 x 1107 km, 123.0° (Epoch: 14 June)

Event Time Altitude Azimuth Distance (km) Brightness Sun altitude
Exits shadow 23:13:58 14° 102° (ESE) 2,696 5.1 -25.5°
Maximum altitude 23:19:37 58° 27° (NNE) 1,271 3.7 -25.7°
Drops below altitude 10° 23:26:00 10° 311° (NW) 2,965 6.1 -25.8°
Sets 23:28:31 0° 308° (NW) 3,925 6.8 -25.8°
